Location: Newark
(12.4436°N, 0.6167°W)
Time: 23:11:05
(UTC+00:00)

Vanguard 2 - Pass Details

Date: 13 December 2019
Orbit: 553 x 2938 km, 32.9° (Epoch: 19 January)

Event Time Altitude Azimuth Distance (km) Brightness Sun altitude
Rises 22:16:55 0° 240° (WSW) 4,142 11.7 -64.0°
Enters shadow 22:17:42 - 240° (WSW) 3,899 11.5 -64.2°
Reaches altitude 10° 22:19:16 10° 241° (WSW) 3,423 - -64.5°
Maximum altitude 22:28:29 83° 328° (NNW) 1,948 - -66.5°
Drops below altitude 10° 22:43:53 10° 56° (NE) 5,417 - -69.6°
Sets 22:48:39 0° 57° (ENE) 6,628 - -70.6°
